Weather History for Yankton, SD

Change the Weather History Date:

Tuesday, February 11, 2014

  Actual Average Record
Temperature  
Mean Temperature 16 °F -  
Max Temperature 26 °F 31 °F 69 °F (1951)
Min Temperature 6 °F 10 °F -22 °F (1981)
Degree Days  
Heating Degree Days 49    
Moisture  
Dew Point 11 °F    
Average Humidity 74    
Maximum Humidity 86    
Minimum Humidity 57    
Precipitation  
Precipitation 0.00 in - - ()
Sea Level Pressure  
Sea Level Pressure 30.14 in    
Wind  
Wind Speed 11 mph (SSE)    
Max Wind Speed 23 mph    
Max Gust Speed 31 mph    
Visibility 10 miles    
Events      
Averages and records for this station are not official NWS values.
T = Trace of Precipitation, MM = Missing Value Source: NWS Daily Summary

Daily Weather History Graph

Daily Weather History Graph

Search for Another Location

Airport:

Trip Planner

Search our weather history database for the weather conditions in past years. The results will help you decide how hot, cold, wet, or windy it might be!

Date:

Astronomy

Feb. 11, 2014 Rise Set
Actual Time 7:32 AM CST 5:55 PM CST
Civil Twilight 7:02 AM CST 6:25 PM CST
Nautical Twilight 6:29 AM CST 6:58 PM CST
Astronomical Twilight 5:56 AM CST 7:31 PM CST
Moon 3:15 PM CST (2/11) 5:12 AM CST (2/11)
Length of Visible Light 11h 22m
Length of Day
10h 23m
Waxing Gibbous, 91% of the Moon is Illuminated
Feb 11
Waxing Gibbous
Feb 14
Full
Feb 22
Last Quarter
Mar 1
New
Mar 8
First Quarter

Hourly Weather History & Observations

Time (CST) Temp. Windchill Dew Point Humidity Pressure Visibility Wind Dir Wind Speed Gust Speed Precip Events Conditions
12:15 AM 6.8 °F -3.5 °F -0.4 °F 72% 30.39 in 10.0 mi East 5.8 mph - N/A   Overcast
12:35 AM 6.8 °F -0.1 °F -0.4 °F 72% 30.38 in 10.0 mi East 3.5 mph - N/A   Overcast
12:55 AM 6.8 °F -4.8 °F -0.4 °F 72% 30.38 in 10.0 mi East 6.9 mph - N/A   Overcast
1:15 AM 6.8 °F -4.8 °F -0.4 °F 72% 30.37 in 10.0 mi East 6.9 mph - N/A   Overcast
1:35 AM 6.8 °F -3.5 °F 1.4 °F 79% 30.36 in 10.0 mi East 5.8 mph - N/A   Overcast
1:55 AM 8.6 °F -1.3 °F 1.4 °F 73% 30.35 in 10.0 mi East 5.8 mph - N/A   Overcast
2:15 AM 8.6 °F 0.1 °F 1.4 °F 73% 30.35 in 10.0 mi East 4.6 mph - N/A   Overcast
2:35 AM 8.6 °F 2.0 °F 1.4 °F 73% 30.35 in 10.0 mi East 3.5 mph - N/A   Overcast
2:55 AM 10.4 °F 2.2 °F 5.0 °F 79% 30.34 in 10.0 mi SSE 4.6 mph - N/A   Overcast
3:15 AM 12.2 °F -0.2 °F -0.4 °F 57% 30.33 in 10.0 mi SSE 9.2 mph - N/A   Overcast
3:35 AM 12.2 °F 1.7 °F 6.8 °F 79% 30.33 in 10.0 mi SSE 6.9 mph - N/A   Overcast
3:55 AM 12.2 °F 0.7 °F 6.8 °F 79% 30.32 in 10.0 mi SSE 8.1 mph - N/A   Overcast
4:15 AM 12.2 °F -0.2 °F 5.0 °F 73% 30.31 in 10.0 mi SSE 9.2 mph - N/A   Overcast
4:35 AM 12.2 °F -0.2 °F 3.2 °F 67% 30.31 in 10.0 mi SSE 9.2 mph - N/A   Overcast
4:55 AM 12.2 °F -0.2 °F 6.8 °F 79% 30.31 in 10.0 mi SSE 9.2 mph - N/A   Overcast
5:15 AM 12.2 °F -1.0 °F 6.8 °F 79% 30.29 in 10.0 mi SSE 10.4 mph - N/A   Overcast
5:35 AM 12.2 °F -1.0 °F 6.8 °F 79% 30.29 in 10.0 mi SSE 10.4 mph - N/A   Overcast
5:55 AM 12.2 °F -1.0 °F 6.8 °F 79% 30.29 in 10.0 mi South 10.4 mph - N/A   Overcast
6:15 AM 14.0 °F 2.0 °F 5.0 °F 67% 30.29 in 10.0 mi South 9.2 mph - N/A   Overcast
6:35 AM 12.2 °F -1.8 °F 3.2 °F 67% 30.28 in 10.0 mi South 11.5 mph - N/A   Overcast
6:55 AM 12.2 °F -1.8 °F 5.0 °F 73% 30.28 in 10.0 mi South 11.5 mph 17.3 mph N/A   Mostly Cloudy
7:15 AM 12.2 °F -1.0 °F 6.8 °F 79% 30.27 in 10.0 mi South 10.4 mph 17.3 mph N/A   Overcast
7:35 AM 12.2 °F -3.7 °F 8.6 °F 85% 30.26 in 10.0 mi South 15.0 mph 18.4 mph N/A   Overcast
7:55 AM 12.2 °F -2.5 °F 8.6 °F 85% 30.26 in 10.0 mi South 12.7 mph - N/A   Overcast
8:15 AM 12.2 °F -3.1 °F 6.8 °F 79% 30.25 in 10.0 mi South 13.8 mph - N/A   Overcast
8:35 AM 14.0 °F -1.4 °F 6.8 °F 73% 30.24 in 10.0 mi South 15.0 mph 19.6 mph N/A   Overcast
8:55 AM 14.0 °F -2.0 °F 6.8 °F 73% 30.23 in 10.0 mi SSE 16.1 mph - N/A   Overcast
9:15 AM 14.0 °F -3.0 °F 6.8 °F 73% 30.22 in 10.0 mi SSE 18.4 mph - N/A   Overcast
9:35 AM 15.8 °F 2.1 °F 8.6 °F 73% 30.22 in 10.0 mi South 12.7 mph 19.6 mph N/A   Overcast
9:55 AM 15.8 °F -1.5 °F 8.6 °F 73% 30.21 in 10.0 mi South 20.7 mph 25.3 mph N/A   Overcast
10:15 AM 17.6 °F 1.7 °F 8.6 °F 68% 30.20 in 10.0 mi South 18.4 mph 24.2 mph N/A   Overcast
10:35 AM 17.6 °F 1.3 °F 8.6 °F 68% 30.20 in 10.0 mi South 19.6 mph 25.3 mph N/A   Overcast
10:55 AM 17.6 °F 0.5 °F 10.4 °F 73% 30.19 in 10.0 mi South 21.9 mph - N/A   Overcast
11:15 AM 19.4 °F 3.2 °F 10.4 °F 68% 30.19 in 10.0 mi South 20.7 mph 27.6 mph N/A   Overcast
11:35 AM 19.4 °F 3.2 °F 12.2 °F 74% 30.17 in 10.0 mi South 20.7 mph 26.5 mph N/A   Overcast
11:55 AM 19.4 °F 2.5 °F 10.4 °F 68% 30.15 in 10.0 mi South 23.0 mph 29.9 mph N/A   Overcast
12:15 PM 21.2 °F 6.8 °F 10.4 °F 63% 30.14 in 10.0 mi South 17.3 mph 27.6 mph N/A   Overcast
12:35 PM 21.2 °F 6.8 °F 15.8 °F 80% 30.12 in 10.0 mi South 17.3 mph 24.2 mph N/A   Overcast
12:55 PM 21.2 °F 6.0 °F 15.8 °F 80% 30.11 in 10.0 mi South 19.6 mph 24.2 mph N/A   Overcast
1:15 PM 23.0 °F 7.6 °F 14.0 °F 68% 30.09 in 10.0 mi South 21.9 mph 26.5 mph N/A   Overcast
1:35 PM 24.8 °F 10.3 °F 15.8 °F 69% 30.06 in 10.0 mi South 20.7 mph 26.5 mph N/A   Overcast
1:55 PM 24.8 °F 10.3 °F 15.8 °F 69% 30.05 in 10.0 mi South 20.7 mph 25.3 mph N/A   Overcast
2:15 PM 24.8 °F 10.7 °F 15.8 °F 69% 30.04 in 10.0 mi South 19.6 mph 25.3 mph N/A   Overcast
2:35 PM 26.6 °F 13.1 °F 17.6 °F 69% 30.03 in 10.0 mi South 19.6 mph 26.5 mph N/A   Overcast
2:55 PM 26.6 °F 13.1 °F 17.6 °F 69% 30.02 in 10.0 mi South 19.6 mph 27.6 mph N/A   Mostly Cloudy
3:15 PM 26.6 °F 12.4 °F 17.6 °F 69% 30.01 in 10.0 mi South 21.9 mph 31.1 mph N/A   Partly Cloudy
3:35 PM 26.6 °F 12.0 °F 17.6 °F 69% 30.00 in 10.0 mi South 23.0 mph 29.9 mph N/A   Mostly Cloudy
3:55 PM 26.6 °F 12.7 °F 19.4 °F 74% 30.01 in 10.0 mi South 20.7 mph 28.8 mph N/A   Mostly Cloudy
4:15 PM 26.6 °F 12.4 °F 17.6 °F 69% 29.99 in 10.0 mi South 21.9 mph 27.6 mph N/A   Mostly Cloudy
4:35 PM 26.6 °F 13.8 °F 15.8 °F 64% 29.98 in 10.0 mi South 17.3 mph 23.0 mph N/A   Mostly Cloudy
4:55 PM 24.8 °F 10.7 °F 19.4 °F 80% 29.98 in 10.0 mi South 19.6 mph 28.8 mph N/A   Scattered Clouds
5:15 PM 24.8 °F 11.5 °F 17.6 °F 74% 29.97 in 10.0 mi South 17.3 mph 24.2 mph N/A   Clear
5:35 PM 24.8 °F 12.9 °F 17.6 °F 74% 29.97 in 10.0 mi South 13.8 mph 20.7 mph N/A   Clear
5:55 PM 24.8 °F 12.9 °F 15.8 °F 69% 29.98 in 10.0 mi South 13.8 mph 18.4 mph N/A   Clear
6:15 PM 23.0 °F 11.1 °F 15.8 °F 74% 29.97 in 10.0 mi South 12.7 mph - N/A   Clear
6:35 PM 23.0 °F 9.6 °F 17.6 °F 80% 29.97 in 10.0 mi South 16.1 mph - N/A   Clear
6:55 PM 23.0 °F 12.4 °F 19.4 °F 86% 29.98 in 10.0 mi SSE 10.4 mph - N/A   Clear
7:15 PM 23.0 °F 11.7 °F 17.6 °F 80% 29.97 in 10.0 mi SSE 11.5 mph - N/A   Scattered Clouds
7:35 PM 23.0 °F 10.6 °F 17.6 °F 80% 29.96 in 10.0 mi SSE 13.8 mph - N/A   Scattered Clouds
7:55 PM 23.0 °F 11.1 °F 17.6 °F 80% 29.96 in 10.0 mi SSE 12.7 mph - N/A   Mostly Cloudy
8:15 PM 23.0 °F 11.7 °F 19.4 °F 86% 29.96 in 10.0 mi South 11.5 mph - N/A   Scattered Clouds
8:35 PM 24.8 °F 15.3 °F 19.4 °F 80% 29.96 in 10.0 mi SSE 9.2 mph 16.1 mph N/A   Scattered Clouds
8:55 PM 24.8 °F 12.9 °F 19.4 °F 80% 29.96 in 10.0 mi South 13.8 mph 18.4 mph N/A   Scattered Clouds
9:15 PM 24.8 °F 14.6 °F 19.4 °F 80% 29.96 in 10.0 mi South 10.4 mph - N/A   Clear
9:35 PM 24.8 °F 12.9 °F 19.4 °F 80% 29.95 in 10.0 mi SSE 13.8 mph - N/A   Mostly Cloudy
9:55 PM 24.8 °F 14.0 °F 17.6 °F 74% 29.94 in 10.0 mi South 11.5 mph - N/A   Overcast
10:15 PM 24.8 °F 14.0 °F 19.4 °F 80% 29.95 in 10.0 mi South 11.5 mph - N/A   Mostly Cloudy
10:35 PM 24.8 °F 14.6 °F 19.4 °F 80% 29.94 in 10.0 mi South 10.4 mph 17.3 mph N/A   Mostly Cloudy
10:55 PM 24.8 °F 13.4 °F 19.4 °F 80% 29.93 in 10.0 mi South 12.7 mph - N/A   Scattered Clouds
11:15 PM 24.8 °F 13.4 °F 17.6 °F 74% 29.92 in 10.0 mi South 12.7 mph - N/A   Scattered Clouds
11:35 PM 24.8 °F 12.9 °F 17.6 °F 74% 29.92 in 10.0 mi South 13.8 mph - N/A   Partly Cloudy